Location: Arthez
(43.0833°N, 0.2500°W)
Time: 04:05:25
(UTC+00:00)

Spot 2 - Pass Details

Date: 23 October 2021
Orbit: 570 x 772 km, 98.7° (Epoch: 29 November)

Event Time Altitude Azimuth Distance (km) Brightness Sun altitude
Rises 18:48:03 0° 171° (S) 2,782 7.3 -19.4°
Reaches altitude 10° 18:50:10 10° 174° (S) 1,903 6.5 -19.8°
Maximum altitude 18:54:15 67° 257° (WSW) 659 4.3 -20.5°
Drops below altitude 10° 18:58:35 10° 341° (NNW) 2,011 6.9 -21.3°
Sets 19:00:52 0° 344° (NNW) 2,956 7.8 -21.7°
